GFSGL_700_temp_000.txt.gz
Temp
5 4 3 3 2 2 1 0 -1 -2 -4 -5 -5 -5 -5 -5 -5 -6 -6 -7 -8 -8 -7 -7 -7 -6 -6 -5 -5 -6 -5 -4 -3 -1 0 0 1 2 3 3 5 5 6
4 3 3 2 2 1 0 -1 -2 -4 -5 -5 -5 -5 -5 -5 -6 -6 -6 -6 -7 -7 -7 -7 -7 -6 -5 -6 -5 -5 -4 -3 -3 -1 -0 1 0 2 3 4 5 5 5
3 3 2 2 1 0 -1 -2 -3 -5 -5 -5 -5 -5 -5 -6 -5 -6 -6 -6 -6 -7 -6 -6 -6 -5 -5 -5 -6 -3 -4 -2 -3 -1 0 0 1 1 2 3 4 4 5
3 3 2 1 0 -1 -1 -2 -4 -5 -5 -5 -6 -5 -5 -6 -5 -6 -6 -6 -6 -6 -6 -6 -6 -5 -5 -4 -3 -4 -4 -3 -3 -2 0 1 1 2 2 4 4 4 5
3 2 1 1 -0 -2 -2 -3 -5 -5 -5 -5 -6 -5 -5 -6 -6 -6 -6 -6 -6 -6 -6 -5 -5 -4 -4 -4 -3 -3 -3 -3 -3 -1 -0 1 2 2 1 4 4 5 5
2 1 1 0 -1 -2 -3 -4 -5 -5 -6 -5 -6 -6 -6 -5 -6 -6 -6 -6 -5 -5 -6 -5 -5 -4 -2 -3 -2 -3 -3 -2 -3 -1 -0 0 2 2 3 4 4 5 5
1 1 0 -1 -2 -3 -3 -4 -5 -5 -6 -6 -6 -6 -6 -6 -6 -6 -6 -6 -5 -5 -6 -6 -5 -4 -3 -3 -2 -2 -2 -2 -2 -0 0 1 2 2 3 3 4 5 7
1 0 -0 -1 -2 -3 -4 -5 -5 -6 -6 -6 -6 -6 -6 -6 -6 -6 -6 -6 -5 -5 -5 -5 -5 -4 -3 -3 -2 -2 -2 -1 -0 -1 0 1 1 2 3 4 5 6 6
0 -0 -1 -2 -2 -3 -4 -5 -6 -6 -6 -6 -6 -6 -7 -6 -6 -6 -6 -6 -5 -5 -5 -4 -4 -4 -3 -3 -2 -2 -1 -1 -1 -1 0 1 0 1 2 4 5 5 6
0 -0 -1 -2 -3 -4 -5 -5 -6 -6 -6 -6 -6 -7 -7 -7 -7 -7 -6 -6 -5 -5 -5 -4 -4 -3 -3 -3 -2 -1 -2 -0 -0 -1 0 1 1 2 3 5 5 7 7
0 -1 -2 -3 -3 -4 -5 -6 -6 -6 -6 -7 -7 -7 -7 -8 -7 -7 -6 -6 -6 -5 -5 -4 -4 -4 -3 -2 -2 -1 -0 -0 -0 -0 0 1 2 2 2 3 5 7 8
-0 -1 -2 -3 -4 -5 -6 -6 -6 -6 -7 -7 -7 -7 -8 -8 -8 -7 -7 -7 -7 -6 -5 -5 -4 -3 -3 -2 -1 -0 1 1 -0 0 0 1 1 2 2 3 5 6 6
-1 -2 -3 -3 -5 -5 -6 -6 -6 -6 -7 -7 -8 -8 -8 -8 -8 -8 -7 -7 -6 -6 -6 -5 -4 -4 -3 -1 -1 -0 -0 -0 0 1 1 2 1 3 2 3 5 6 6
-2 -3 -3 -4 -5 -6 -6 -6 -7 -6 -7 -8 -8 -8 -8 -8 -8 -8 -7 -7 -7 -6 -6 -5 -4 -4 -3 -2 -1 0 0 -0 0 1 2 1 2 3 2 4 5 6 6
-2 -3 -4 -5 -6 -6 -7 -7 -7 -7 -8 -8 -9 -9 -9 -9 -8 -9 -8 -7 -7 -6 -5 -5 -5 -4 -3 -2 -0 0 0 -0 1 2 2 2 3 2 3 4 5 6 6
-3 -4 -5 -5 -6 -6 -7 -6 -7 -7 -8 -8 -9 -9 -9 -9 -9 -9 -9 -8 -7 -7 -6 -5 -5 -4 -3 -1 -1 0 0 0 1 1 2 2 3 2 3 4 5 6 7
-4 -4 -5 -5 -6 -6 -6 -6 -6 -7 -8 -8 -9 -9 -9 -9 -9 -9 -8 -8 -7 -7 -6 -6 -5 -4 -3 -2 -0 0 0 -0 1 1 2 2 2 2 3 5 5 6 6
-4 -5 -5 -6 -6 -6 -7 -6 -7 -7 -7 -7 -9 -9 -9 -9 -9 -9 -9 -8 -8 -7 -6 -6 -5 -4 -3 -2 -0 0 1 0 1 2 2 3 2 3 4 5 6 6 6
-5 -5 -6 -6 -6 -7 -7 -7 -7 -7 -8 -8 -8 -9 -10 -10 -9 -9 -9 -8 -7 -7 -6 -5 -5 -4 -3 -2 -1 1 1 1 1 2 2 2 2 3 4 5 6 6 6
-5 -6 -6 -6 -6 -6 -7 -7 -8 -8 -8 -8 -9 -8 -10 -10 -9 -9 -9 -8 -8 -7 -6 -6 -5 -5 -4 -2 -1 -0 1 0 2 2 2 2 3 3 4 5 5 6 6
-5 -6 -6 -6 -7 -6 -7 -8 -8 -8 -8 -8 -9 -9 -9 -10 -9 -9 -9 -9 -8 -7 -7 -6 -5 -5 -4 -2 -1 -1 0 1 0 1 2 2 2 3 3 4 5 5 6
-6 -6 -7 -7 -7 -7 -8 -8 -8 -9 -8 -8 -9 -9 -9 -10 -10 -9 -9 -9 -8 -7 -6 -6 -5 -5 -4 -3 -1 -1 -0 0 0 0 1 1 3 2 3 4 3 4 5
-6 -6 -6 -7 -7 -8 -8 -8 -8 -8 -8 -9 -9 -9 -10 -10 -10 -10 -9 -9 -8 -8 -7 -6 -5 -5 -4 -3 -3 -0 0 1 0 1 1 2 2 2 3 3 3 4 4
-6 -6 -7 -7 -8 -8 -7 -8 -8 -8 -8 -9 -9 -10 -10 -10 -10 -10 -10 -9 -8 -7 -7 -6 -5 -4 -4 -3 -3 -1 0 0 1 1 1 2 2 2 3 3 3 3 3
-6 -7 -7 -8 -7 -7 -7 -8 -8 -8 -8 -8 -9 -10 -10 -10 -10 -10 -10 -9 -8 -8 -7 -6 -5 -5 -4 -4 -3 -2 -1 0 1 1 1 1 2 1 2 2 2 2 3
-7 -7 -8 -7 -7 -7 -8 -8 -8 -8 -8 -8 -9 -10 -10 -10 -10 -10 -10 -9 -8 -8 -7 -6 -6 -5 -4 -4 -3 -3 -1 0 1 2 2 2 1 2 3 2 2 2 2

GFSGL_700_temp_003.txt.gz
Temp
6 6 5 4 4 3 3 2 2 1 0 -0 -1 -3 -4 -4 -4 -4 -5 -5 -5 -6 -6 -7 -7 -7 -7 -7 -6 -7 -6 -5 -5 -4 -3 -1 -0 0 1 2 3 3 3
6 5 5 4 3 3 2 2 1 0 -0 -1 -3 -4 -4 -4 -4 -5 -5 -5 -5 -5 -6 -6 -7 -7 -6 -6 -6 -6 -6 -6 -6 -4 -3 -2 -1 1 1 2 2 2 3
5 5 4 3 2 2 1 1 0 -0 -1 -2 -4 -4 -4 -4 -4 -4 -5 -5 -5 -5 -5 -6 -6 -6 -6 -6 -5 -5 -5 -5 -5 -4 -3 -3 -1 1 2 1 2 2 3
5 4 3 2 2 1 1 0 -0 -1 -1 -3 -4 -4 -4 -4 -4 -5 -5 -5 -5 -5 -5 -6 -6 -6 -6 -5 -5 -4 -5 -4 -1 -3 -3 -2 -1 1 2 1 2 1 2
4 3 2 2 1 1 0 -0 -1 -2 -2 -3 -4 -4 -4 -5 -5 -5 -5 -6 -5 -5 -5 -6 -6 -5 -5 -5 -4 -4 -4 -3 -4 -3 -3 -2 -1 -0 1 1 2 1 2
3 3 2 2 1 0 -0 -1 -2 -3 -3 -4 -4 -5 -5 -5 -5 -6 -6 -6 -6 -5 -5 -5 -5 -5 -5 -4 -4 -3 -3 -2 -3 -3 -3 -2 -1 0 0 2 2 2 2
3 2 2 1 1 0 -1 -2 -3 -3 -4 -5 -5 -5 -5 -5 -5 -6 -6 -6 -6 -5 -5 -5 -5 -5 -5 -4 -3 -3 -2 -2 -3 -3 -2 -1 -1 -0 1 1 2 2 3
2 2 1 1 1 -0 -1 -3 -3 -4 -5 -5 -5 -5 -5 -5 -6 -6 -6 -6 -6 -5 -5 -5 -5 -5 -5 -4 -4 -2 -2 -2 -2 -1 -1 -1 -0 0 1 2 2 2 3
2 1 1 0 -0 -1 -2 -3 -4 -5 -5 -5 -5 -5 -5 -6 -6 -7 -7 -6 -6 -6 -5 -5 -6 -4 -4 -4 -3 -3 -2 -2 -2 -1 -1 -2 -0 0 1 1 1 2 4
1 1 0 -0 -1 -1 -2 -3 -4 -5 -5 -5 -5 -6 -6 -6 -7 -7 -7 -7 -6 -6 -4 -4 -5 -4 -4 -4 -3 -2 -2 -2 -2 -2 -1 -1 -1 -0 1 1 2 3 4
1 0 -0 -1 -1 -2 -3 -4 -5 -5 -5 -5 -6 -6 -6 -7 -7 -8 -8 -7 -7 -6 -5 -4 -5 -4 -4 -3 -3 -3 -2 -1 -2 -2 -1 -1 -0 -0 1 2 2 3 5
0 -0 -1 -1 -1 -3 -3 -4 -5 -5 -6 -6 -6 -6 -7 -7 -8 -8 -8 -7 -7 -7 -6 -5 -5 -5 -4 -3 -3 -2 -2 -1 -1 -0 -0 -0 1 1 1 2 3 4 4
-0 -0 -0 -1 -2 -3 -4 -5 -5 -5 -6 -6 -6 -6 -6 -7 -8 -8 -8 -8 -8 -8 -7 -6 -5 -5 -4 -3 -2 -2 -1 -1 -0 1 -0 0 1 1 1 1 2 3 4
-0 -1 -1 -2 -3 -4 -5 -5 -5 -6 -6 -7 -7 -6 -6 -8 -9 -9 -9 -8 -8 -8 -7 -6 -5 -5 -4 -4 -2 -2 -1 -1 -0 0 1 1 1 1 1 2 3 4 4
-1 -1 -2 -2 -3 -4 -5 -5 -6 -6 -7 -7 -6 -7 -7 -8 -8 -9 -9 -8 -8 -8 -6 -6 -5 -4 -4 -3 -3 -1 -1 -1 -0 -0 -0 1 1 0 1 2 3 4 5
-2 -2 -2 -3 -4 -4 -5 -5 -6 -6 -6 -7 -7 -7 -7 -8 -8 -9 -9 -9 -8 -8 -7 -6 -5 -5 -5 -3 -2 -1 -1 -1 -0 0 1 1 2 2 1 2 4 4 5
-2 -2 -3 -3 -4 -5 -5 -6 -6 -6 -7 -7 -8 -8 -7 -8 -8 -9 -9 -9 -8 -8 -7 -6 -5 -5 -5 -4 -2 -1 -1 -0 1 1 1 2 2 2 2 2 4 4 5
-2 -3 -3 -4 -4 -5 -6 -6 -6 -6 -7 -7 -8 -8 -8 -8 -8 -9 -9 -9 -8 -8 -7 -6 -6 -5 -5 -4 -2 -0 0 -0 -0 1 1 2 1 2 3 2 4 4 5
-3 -3 -4 -4 -5 -6 -6 -6 -6 -6 -7 -8 -8 -8 -8 -8 -8 -9 -9 -9 -8 -8 -7 -7 -6 -5 -5 -4 -2 -1 -0 0 0 1 1 2 1 2 3 3 3 4 5
-4 -4 -5 -5 -5 -6 -6 -6 -6 -6 -7 -8 -8 -8 -7 -7 -8 -8 -9 -9 -9 -8 -7 -7 -6 -5 -5 -4 -2 -1 1 -0 0 1 1 2 2 2 3 3 4 5 5
-4 -5 -5 -6 -6 -6 -6 -7 -6 -7 -8 -8 -8 -8 -8 -8 -8 -8 -9 -9 -9 -8 -7 -7 -6 -5 -5 -4 -3 -1 -0 0 1 1 2 2 2 2 3 3 4 4 5
-5 -5 -6 -6 -6 -7 -7 -6 -7 -7 -8 -7 -8 -8 -8 -8 -9 -10 -9 -9 -9 -8 -7 -6 -6 -5 -5 -4 -3 -2 -1 -0 0 1 2 2 2 2 3 3 4 4 5
-5 -5 -6 -6 -6 -7 -6 -7 -7 -7 -8 -8 -8 -8 -9 -9 -10 -10 -10 -10 -9 -8 -8 -7 -6 -5 -5 -4 -4 -2 -1 -0 -0 0 1 2 2 2 3 4 3 4 5
-6 -6 -6 -7 -7 -6 -6 -7 -7 -7 -7 -8 -8 -8 -9 -9 -10 -10 -10 -10 -9 -8 -8 -7 -6 -5 -5 -4 -4 -3 -1 -1 0 0 2 1 2 2 3 3 3 3 4
-6 -7 -7 -7 -7 -7 -7 -7 -7 -7 -7 -8 -7 -8 -9 -9 -9 -10 -10 -10 -9 -8 -7 -7 -7 -5 -5 -4 -4 -3 -2 -1 -0 -0 0 1 1 2 2 3 3 3 3
-7 -7 -7 -7 -7 -7 -7 -7 -7 -7 -7 -8 -8 -8 -9 -10 -10 -10 -10 -10 -9 -8 -8 -7 -6 -5 -5 -4 -4 -3 -3 -2 -1 0 0 1 0 1 1 1 2 3 3

GFSGL_700_temp_006.txt.gz
Temp
7 7 7 6 5 5 4 4 3 3 2 2 2 1 0 -1 -2 -3 -3 -3 -3 -4 -5 -5 -5 -5 -5 -6 -7 -7 -6 -7 -7 -5 -6 -4 -3 -0 -0 1 3 3 3
7 7 6 5 5 4 3 3 3 2 2 2 1 1 -0 -2 -3 -3 -3 -4 -4 -4 -5 -5 -5 -5 -5 -6 -6 -6 -6 -6 -6 -6 -6 -5 -4 -3 -0 2 2 3 3
7 6 6 5 4 3 3 2 2 2 1 1 0 -0 -1 -2 -3 -3 -3 -4 -4 -4 -5 -5 -5 -5 -5 -6 -6 -6 -5 -6 -6 -6 -6 -5 -3 -3 -1 1 2 2 2
6 6 5 5 4 3 2 2 1 1 1 -0 -1 -2 -2 -2 -3 -3 -4 -4 -5 -5 -5 -5 -5 -5 -5 -5 -5 -5 -5 -4 -5 -4 -5 -4 -2 -2 0 0 2 2 2
6 5 5 4 3 3 2 1 1 0 -0 -1 -1 -2 -3 -3 -4 -4 -4 -5 -5 -5 -5 -5 -5 -5 -5 -5 -5 -5 -4 -4 -4 -4 -4 -3 -4 -2 1 0 2 1 2
5 5 4 4 3 2 1 1 0 -1 -1 -1 -2 -2 -3 -4 -4 -4 -5 -5 -5 -5 -5 -5 -5 -5 -5 -5 -5 -5 -4 -4 -4 -3 -3 -4 -2 -1 0 1 1 1 1
5 4 4 3 2 1 1 1 -0 -1 -1 -2 -2 -3 -4 -4 -5 -5 -5 -6 -5 -5 -6 -5 -5 -5 -5 -5 -5 -5 -4 -3 -3 -2 -2 -2 -1 -0 0 1 1 1 1
5 4 3 2 1 1 1 -0 -0 -1 -1 -2 -3 -4 -4 -5 -5 -5 -6 -6 -6 -6 -6 -6 -5 -5 -5 -5 -5 -4 -3 -3 -3 -2 -3 -3 -2 -1 -1 1 1 1 2
4 3 2 2 1 1 0 -0 -1 -1 -2 -3 -3 -4 -4 -5 -5 -6 -6 -6 -6 -6 -6 -6 -5 -6 -5 -5 -4 -4 -3 -2 -2 -2 -3 -2 -2 -1 -0 0 1 1 2
3 2 2 2 1 0 0 -1 -1 -2 -2 -3 -4 -4 -5 -5 -6 -6 -7 -7 -7 -7 -7 -6 -6 -6 -4 -5 -4 -4 -3 -2 -2 -2 -2 -2 -1 -0 0 1 1 2 1
3 2 2 1 0 -0 -1 -1 -1 -2 -3 -3 -4 -4 -5 -5 -6 -6 -7 -7 -8 -8 -7 -7 -6 -6 -5 -5 -4 -3 -4 -3 -2 -2 -2 -1 -1 -1 -0 0 2 2 2
2 1 1 -0 -1 -1 -1 -1 -2 -2 -3 -3 -4 -5 -5 -6 -7 -6 -7 -8 -9 -8 -8 -7 -7 -6 -5 -5 -4 -3 -3 -3 -2 -2 -2 -1 -0 -1 1 1 1 1 2
1 0 -1 -1 -1 -1 -1 -2 -2 -3 -3 -4 -5 -5 -5 -6 -6 -7 -8 -9 -9 -8 -8 -7 -7 -6 -6 -5 -4 -3 -3 -2 -2 -2 -1 -1 -1 -1 0 1 0 1 1
-0 -1 -1 -1 -1 -1 -2 -2 -2 -3 -3 -4 -5 -5 -5 -6 -6 -7 -8 -9 -9 -8 -8 -7 -7 -6 -6 -5 -4 -3 -2 -2 -2 -1 -1 -1 -1 -0 1 1 1 2 2
-2 -1 -1 -1 -1 -2 -2 -3 -3 -4 -4 -5 -5 -5 -5 -6 -6 -7 -8 -8 -9 -8 -7 -7 -6 -5 -5 -5 -4 -3 -2 -2 -1 -1 -2 -1 -0 -0 1 1 1 2 2
-3 -2 -2 -2 -2 -3 -3 -3 -4 -4 -5 -5 -5 -6 -6 -6 -6 -7 -8 -8 -8 -8 -7 -7 -6 -5 -5 -5 -4 -3 -2 -1 -1 -1 -1 -1 0 0 1 1 1 2 3
-4 -3 -2 -3 -3 -3 -4 -4 -4 -5 -5 -5 -6 -6 -7 -6 -6 -7 -8 -8 -8 -8 -8 -7 -6 -5 -5 -5 -4 -3 -2 -1 -0 -1 -1 -1 -1 1 1 1 1 2 3
-5 -3 -3 -3 -4 -4 -4 -4 -4 -5 -5 -6 -6 -7 -7 -7 -7 -7 -8 -8 -8 -8 -8 -7 -6 -5 -5 -5 -4 -3 -1 -1 -0 -0 -0 -1 -0 1 1 1 1 2 3
-5 -4 -4 -4 -4 -4 -4 -4 -5 -6 -6 -6 -6 -7 -8 -7 -7 -7 -8 -8 -8 -8 -8 -7 -6 -5 -5 -5 -4 -3 -1 -1 -0 -0 0 0 1 1 2 1 1 3 4
-5 -4 -4 -4 -5 -5 -5 -5 -6 -6 -6 -6 -6 -7 -7 -7 -7 -7 -8 -8 -8 -8 -7 -7 -7 -5 -5 -5 -4 -4 -1 -1 -1 -0 1 0 1 1 2 2 2 3 4
-6 -5 -5 -5 -5 -5 -5 -6 -6 -6 -6 -6 -7 -7 -7 -7 -7 -7 -8 -9 -9 -9 -8 -8 -7 -6 -5 -5 -5 -4 -3 -1 -0 -0 1 1 1 2 1 2 2 3 4
-6 -5 -5 -5 -5 -5 -5 -6 -6 -6 -6 -6 -7 -7 -7 -7 -8 -8 -9 -9 -10 -9 -9 -8 -7 -6 -6 -5 -5 -4 -3 -2 -0 0 0 1 1 2 2 2 2 3 4
-6 -5 -5 -6 -6 -6 -6 -6 -6 -6 -6 -7 -7 -7 -7 -7 -8 -8 -9 -10 -10 -10 -9 -8 -7 -6 -6 -5 -5 -4 -3 -0 -0 -0 0 1 1 1 2 2 2 3 3
-6 -6 -6 -6 -6 -6 -6 -6 -7 -6 -7 -7 -7 -7 -7 -7 -8 -9 -9 -10 -10 -10 -9 -8 -7 -6 -6 -5 -5 -4 -3 -2 -1 0 1 1 2 2 2 2 2 3 3
-6 -6 -6 -6 -6 -6 -6 -7 -7 -6 -7 -7 -7 -7 -7 -7 -8 -9 -9 -10 -10 -10 -9 -8 -7 -7 -6 -5 -5 -4 -4 -2 -1 -0 0 1 1 2 1 1 2 3 3
-6 -6 -6 -6 -6 -6 -6 -7 -7 -7 -7 -7 -7 -7 -7 -8 -9 -9 -10 -10 -10 -10 -9 -8 -8 -7 -7 -6 -5 -4 -4 -3 -1 -0 0 1 1 2 2 1 2 3 3

GFSGL_700_temp_009.txt.gz
Temp
9 8 7 6 6 5 5 5 5 4 4 3 3 2 2 2 1 1 0 -1 -1 -2 -3 -3 -4 -4 -5 -5 -5 -6 -5 -6 -6 -4 -6 -6 -5 -5 -4 -2 -2 -2 1
8 7 6 6 5 5 5 5 4 4 3 3 2 2 1 1 1 0 -1 -2 -2 -3 -3 -4 -4 -5 -5 -5 -5 -5 -5 -6 -6 -6 -6 -6 -6 -6 -5 -2 -0 -1 1
8 7 6 6 5 5 4 4 4 3 2 2 2 1 1 0 0 -0 -1 -2 -2 -3 -4 -4 -4 -5 -5 -5 -5 -5 -5 -6 -6 -6 -5 -6 -6 -7 -7 -5 -1 -1 1
7 7 6 5 5 4 4 4 3 2 2 2 1 1 1 -0 -0 -1 -2 -3 -3 -3 -4 -4 -5 -5 -5 -6 -6 -5 -5 -5 -6 -5 -5 -5 -6 -5 -5 -4 -2 -1 1
7 7 6 5 4 4 4 3 3 2 2 1 1 1 -0 -1 -1 -2 -3 -3 -3 -4 -4 -5 -6 -6 -6 -6 -6 -5 -6 -5 -5 -4 -4 -4 -5 -5 -3 0 -2 1 2
7 6 5 5 4 4 3 3 2 2 1 1 1 0 -1 -1 -2 -2 -3 -3 -4 -4 -5 -5 -6 -6 -6 -6 -6 -5 -6 -5 -5 -4 -4 -4 -4 -4 -4 1 -1 1 0
6 5 5 4 4 3 3 2 1 1 1 1 0 -1 -1 -2 -2 -3 -4 -4 -4 -5 -5 -5 -6 -6 -6 -6 -5 -5 -5 -5 -4 -4 -4 -4 -4 -4 -3 -2 -0 1 1
5 5 4 4 4 3 2 2 1 0 0 0 -0 -1 -2 -2 -3 -3 -4 -4 -4 -5 -6 -6 -6 -6 -7 -6 -5 -5 -5 -4 -4 -3 -3 -3 -3 -2 -1 -2 -0 1 2
5 5 4 4 3 2 2 1 0 0 0 -0 -1 -2 -2 -3 -3 -4 -4 -4 -5 -6 -7 -7 -8 -7 -7 -6 -5 -5 -5 -4 -4 -3 -2 -3 -2 0 -1 -0 1 1 1
5 5 4 4 2 2 1 0 0 0 -0 -1 -1 -2 -2 -3 -4 -4 -4 -4 -5 -5 -7 -8 -8 -8 -7 -6 -6 -5 -5 -4 -4 -3 -2 -2 -3 -2 -1 -0 0 1 1
4 4 4 3 2 1 0 0 -0 -0 -1 -1 -2 -2 -3 -4 -4 -5 -4 -5 -5 -6 -7 -7 -7 -7 -7 -6 -6 -6 -5 -5 -4 -3 -2 -2 -2 -1 -1 -1 0 0 1
3 3 3 2 1 0 0 -0 -0 -1 -1 -2 -2 -3 -4 -4 -5 -5 -4 -5 -6 -6 -7 -7 -7 -7 -6 -6 -6 -5 -4 -4 -3 -2 -2 -2 -2 -1 -0 -1 -0 1 1
3 3 2 1 1 0 -0 -1 -1 -2 -2 -2 -2 -3 -4 -4 -5 -5 -5 -6 -6 -6 -7 -7 -6 -6 -6 -6 -6 -5 -4 -4 -4 -2 -2 -2 -2 -1 -1 -1 -0 1 1
2 1 1 0 -0 -1 -1 -1 -2 -2 -2 -2 -3 -4 -4 -4 -5 -5 -6 -6 -6 -7 -7 -7 -7 -6 -6 -5 -5 -6 -5 -4 -3 -2 -1 -2 -2 -1 -1 -1 -0 0 1
0 0 -0 -1 -1 -2 -2 -2 -2 -2 -2 -3 -4 -4 -4 -5 -5 -5 -6 -6 -6 -6 -7 -7 -7 -6 -6 -6 -5 -5 -5 -3 -3 -2 -2 -1 -2 -1 -1 -0 0 1 1
-0 -1 -2 -3 -4 -4 -2 -2 -2 -3 -3 -4 -4 -4 -5 -5 -5 -6 -6 -6 -6 -7 -7 -7 -7 -6 -5 -5 -5 -5 -5 -3 -3 -2 -1 -2 -1 -1 -1 -0 -0 -0 1
-1 -1 -3 -4 -5 -4 -3 -3 -3 -4 -4 -4 -4 -5 -5 -5 -6 -7 -6 -6 -6 -7 -7 -7 -7 -6 -5 -5 -5 -5 -5 -3 -2 -2 -2 -1 -1 -1 -1 -0 -0 0 0
-1 -2 -4 -6 -5 -4 -3 -3 -4 -4 -4 -4 -5 -5 -6 -6 -6 -7 -6 -6 -6 -7 -7 -7 -7 -6 -6 -5 -5 -5 -5 -3 -2 -1 -1 -1 -1 -1 -0 -0 0 1 0
-4 -6 -5 -6 -6 -5 -4 -4 -4 -4 -4 -5 -5 -6 -6 -6 -7 -6 -6 -6 -6 -7 -7 -7 -7 -7 -6 -5 -5 -5 -5 -4 -2 -2 -1 -1 -1 -0 -0 0 1 1 1
-4 -5 -5 -7 -6 -5 -4 -4 -4 -4 -4 -5 -6 -6 -6 -6 -6 -6 -7 -7 -7 -8 -8 -8 -8 -7 -7 -6 -5 -5 -4 -4 -2 -1 -1 -1 -0 -0 1 1 0 1 2
-5 -6 -6 -7 -7 -5 -4 -5 -5 -5 -5 -5 -6 -6 -6 -6 -6 -6 -7 -7 -8 -9 -9 -9 -8 -8 -7 -6 -5 -5 -4 -4 -2 -1 -0 -1 -0 -0 1 1 1 1 2
-6 -7 -7 -6 -5 -5 -4 -5 -5 -5 -5 -6 -6 -6 -6 -6 -6 -7 -7 -8 -8 -9 -9 -9 -9 -8 -7 -6 -5 -5 -4 -4 -2 -1 -1 -0 -0 0 0 1 1 1 2
-8 -7 -7 -6 -5 -5 -5 -5 -6 -6 -6 -6 -6 -6 -6 -6 -6 -7 -8 -8 -9 -9 -10 -9 -8 -8 -7 -6 -5 -5 -4 -4 -2 -1 -0 0 0 0 0 1 2 2 2
-8 -7 -6 -5 -5 -5 -6 -6 -6 -6 -6 -6 -6 -6 -6 -7 -7 -7 -8 -8 -9 -9 -9 -9 -8 -8 -7 -6 -5 -5 -4 -4 -3 -1 -1 -0 0 1 1 1 1 2 2
-7 -6 -6 -6 -6 -6 -6 -6 -6 -7 -6 -6 -6 -6 -7 -7 -7 -7 -8 -9 -9 -9 -9 -9 -8 -8 -7 -6 -5 -5 -5 -4 -3 -1 -1 -1 0 0 1 1 1 2 2
-7 -6 -6 -6 -6 -7 -7 -6 -7 -7 -6 -6 -7 -7 -7 -7 -7 -8 -8 -9 -10 -10 -10 -9 -9 -8 -7 -6 -5 -5 -4 -4 -3 -2 -1 -0 0 1 1 1 2 2 2

GFSGL_700_temp_012.txt.gz
Temp
10 9 9 8 7 7 6 6 5 5 5 4 3 3 2 2 2 2 1 1 1 1 0 -0 -1 -2 -3 -3 -4 -5 -5 -6 -5 -2 -4 -4 -5 -5 -5 -4 -3 -3 -2
9 9 9 8 7 6 6 5 5 4 4 4 3 2 2 2 1 1 1 1 1 0 -0 -1 -2 -3 -3 -4 -5 -5 -6 -6 -6 -4 -5 -5 -5 -5 -6 -5 -4 -3 -1
9 8 8 8 7 6 5 4 4 4 4 3 3 2 2 1 1 1 0 0 -0 -0 -1 -2 -3 -4 -4 -4 -5 -5 -6 -6 -6 -5 -5 -5 -5 -6 -5 -5 -5 -4 -2
8 8 8 7 7 5 4 4 4 4 3 3 2 2 1 1 0 0 -0 -0 -0 -1 -2 -3 -3 -4 -4 -5 -5 -6 -6 -6 -5 -6 -5 -5 -5 -5 -5 -6 -6 -3 -2
8 8 7 7 6 5 5 4 4 4 3 2 2 1 1 0 -0 -0 -0 -1 -1 -1 -3 -3 -4 -4 -5 -6 -5 -6 -6 -6 -5 -5 -5 -5 -4 -5 -5 -6 -5 -3 0
8 7 7 6 6 6 5 4 4 3 3 2 2 1 1 0 -0 -1 -1 -1 -1 -2 -3 -4 -4 -5 -6 -6 -6 -7 -6 -6 -5 -5 -5 -4 -4 -5 -5 -6 -5 0 2
7 7 6 6 6 5 4 4 3 3 2 2 1 1 0 -0 -1 -1 -1 -1 -2 -3 -4 -4 -5 -5 -7 -7 -7 -7 -6 -6 -6 -5 -5 -4 -3 -4 -4 -5 -4 1 0
7 6 6 5 5 5 4 4 3 3 2 1 1 0 -0 -1 -1 -1 -1 -2 -3 -4 -4 -4 -5 -7 -8 -8 -8 -6 -6 -5 -6 -5 -4 -4 -4 -3 -4 -5 -1 -1 0
7 6 6 5 5 4 4 3 3 2 2 1 1 0 -1 -1 -1 -1 -1 -2 -4 -4 -4 -5 -6 -8 -7 -8 -7 -6 -5 -5 -5 -5 -4 -3 -3 -3 -4 -1 -2 1 1
6 6 5 5 4 4 3 2 2 2 1 1 0 -0 -1 -1 -2 -2 -2 -3 -4 -4 -4 -5 -6 -7 -7 -7 -6 -6 -4 -4 -4 -4 -4 -3 -3 -3 -4 -3 -1 -1 0
6 5 5 4 4 3 2 2 1 1 1 0 -0 -1 -1 -2 -2 -2 -3 -3 -4 -4 -4 -5 -6 -6 -6 -6 -6 -5 -5 -4 -3 -4 -3 -3 -3 -3 -2 -2 -1 -0 0
6 5 4 3 3 3 2 2 1 1 0 -0 -1 -1 -2 -2 -2 -3 -3 -4 -4 -4 -5 -5 -6 -6 -6 -6 -5 -5 -5 -4 -3 -3 -3 -3 -3 -3 -2 -0 -0 1 2
5 4 4 3 3 2 2 1 1 -0 -0 -1 -1 -2 -2 -2 -3 -3 -4 -4 -4 -5 -5 -5 -6 -6 -6 -6 -5 -5 -5 -3 -2 -1 -2 -2 -3 -2 -2 -1 -1 -0 1
3 3 3 3 2 2 1 0 -0 -1 -1 -1 -2 -2 -2 -3 -3 -4 -4 -4 -5 -5 -5 -6 -7 -6 -6 -6 -5 -5 -5 -4 -3 -2 -2 -2 -2 -2 -2 -1 -1 -0 0
2 2 2 1 1 1 -1 -1 -2 -2 -2 -2 -3 -3 -3 -3 -3 -4 -5 -5 -5 -5 -5 -5 -6 -6 -6 -6 -5 -5 -5 -3 -3 -2 -1 -2 -2 -2 -1 -1 -0 -0 -0
0 1 0 0 -0 -3 -2 -4 -4 -3 -3 -3 -3 -3 -3 -3 -4 -4 -5 -5 -5 -5 -5 -5 -6 -6 -5 -5 -5 -5 -5 -4 -3 -2 -2 -2 -2 -2 -2 -1 -1 -0 -0
-1 -1 -2 -2 -2 -4 -3 -6 -5 -3 -3 -3 -3 -3 -3 -4 -4 -5 -5 -5 -5 -6 -5 -5 -6 -6 -5 -5 -5 -5 -5 -5 -4 -3 -3 -3 -2 -2 -1 -1 -1 0 -1
-2 -1 -1 -1 -3 -6 -7 -6 -4 -4 -3 -3 -3 -3 -4 -4 -4 -5 -5 -5 -5 -6 -6 -5 -6 -6 -6 -5 -5 -5 -5 -5 -5 -4 -3 -2 -2 -2 -2 -1 -1 -0 -0
-2 -2 -2 -4 -7 -7 -6 -5 -5 -4 -4 -3 -4 -4 -4 -5 -5 -6 -6 -6 -6 -6 -6 -6 -7 -7 -6 -5 -5 -5 -5 -5 -5 -3 -1 -2 -2 -1 -1 -2 -1 -1 1
-3 -3 -7 -7 -7 -7 -6 -6 -5 -6 -4 -4 -4 -4 -4 -5 -5 -6 -6 -6 -6 -7 -7 -7 -8 -8 -7 -6 -5 -5 -5 -5 -5 -4 -2 -1 -1 -1 -1 -2 -1 -0 -0
-4 -7 -8 -7 -7 -6 -7 -7 -5 -5 -5 -5 -4 -4 -5 -5 -6 -6 -6 -6 -7 -7 -8 -8 -8 -8 -7 -7 -6 -5 -5 -5 -4 -4 -2 -1 -1 -1 -1 -1 0 -1 0
-7 -7 -7 -7 -6 -6 -6 -5 -5 -6 -5 -5 -5 -5 -5 -6 -6 -6 -6 -7 -7 -8 -8 -8 -9 -8 -8 -7 -6 -5 -5 -5 -4 -4 -2 -2 -1 -1 -1 -1 0 -0 0
-7 -8 -8 -8 -7 -6 -6 -6 -5 -6 -5 -5 -5 -6 -6 -6 -6 -6 -6 -7 -8 -8 -8 -9 -9 -9 -8 -7 -7 -6 -5 -4 -4 -4 -2 -2 -1 -1 -1 0 0 -0 0
-7 -8 -8 -8 -7 -6 -6 -5 -6 -6 -6 -6 -6 -6 -6 -6 -6 -6 -7 -7 -8 -8 -9 -9 -9 -9 -8 -8 -7 -6 -5 -5 -4 -4 -2 -1 -1 -1 -1 0 0 0 1
-8 -8 -7 -7 -6 -7 -6 -6 -6 -6 -6 -6 -6 -6 -6 -7 -7 -7 -7 -8 -8 -8 -9 -10 -9 -9 -8 -8 -7 -6 -5 -5 -4 -4 -2 -1 -1 -0 -0 0 0 1 1
-8 -8 -8 -8 -8 -6 -6 -6 -6 -6 -6 -7 -7 -7 -7 -7 -7 -8 -8 -8 -9 -9 -10 -10 -10 -9 -9 -8 -7 -6 -5 -5 -4 -4 -2 -1 -1 -1 1 0 0 1 1